Back to catalog

STARLINK-2743

AliveCommunicationsVLEO
NORAD 48682·PAYLOAD·🇺🇸 United States

Launched May 26, 2021 from Cape Canaveral Space Force Station

Loading…

Next Passes (next 24 hours)

TLE

FreshSource: CelesTrak SupGP

Epoch: Sep 14, 2026, 12:43 UTC

1 48682C 21044AW  26257.53034722  .00012821  00000+0  41245-3 0  2576
2 48682  53.1582 266.1842 0001351  84.0832  97.2692 15.31683328    14

Track STARLINK-2743 in real time with AllMySat

Download on the App Store